EW4100 Weather Reports


time (UTC)temp
C
wind
direction
speed
KPH
gust
KPH
rain 1hr
cm
rain 24hr
cm
rain mn
cm
humidity
%
barometer
mb
20260507084054 11 0 0.0 1.6 0.00 0.00 0.00 86 1021.5
20260507083554 11 0 0.0 1.6 0.00 0.00 0.00 86 1021.5
20260507083108 11 0 0.0 8.0 0.00 0.00 0.00 86 1021.4
20260507082554 10 0 0.0 9.7 0.00 0.00 0.00 86 1021.4
20260507082058 10 169 1.6 9.7 0.00 0.00 0.00 86 1021.4
20260507081601 10 0 1.6 8.0 0.00 0.00 0.00 86 1021.3
20260507081054 10 0 0.0 6.4 0.00 0.00 0.00 86 1021.3
20260507080554 10 0 0.0 4.8 0.00 0.00 0.00 87 1021.3
20260507080053 10 105 0.0 6.4 0.00 0.00 0.00 87 1021.3
20260507075554 10 0 0.0 6.4 0.00 0.00 0.00 87 1021.2
20260507075054 10 0 0.0 0.0 0.00 0.00 0.00 87 1021.2
20260507074611 10 0 0.0 0.0 0.00 0.00 0.00 87 1021.3
20260507074053 10 0 0.0 0.0 0.00 0.00 0.00 87 1021.2
20260507073554 10 0 0.0 4.8 0.00 0.00 0.00 87 1021.3
20260507073100 10 0 0.0 4.8 0.00 0.00 0.00 87 1021.3
20260507072554 10 0 0.0 4.8 0.00 0.00 0.00 87 1021.2
20260507072054 10 0 0.0 1.6 0.00 0.00 0.00 87 1021.1
20260507071554 10 0 0.0 3.2 0.00 0.00 0.00 87 1021.0
20260507071054 10 0 0.0 3.2 0.00 0.00 0.00 86 1021.0
20260507070554 10 0 0.0 3.2 0.00 0.00 0.00 86 1021.1
20260507065554 10 0 0.0 3.2 0.00 0.00 0.00 86 1021.1
20260507065054 10 0 0.0 0.0 0.00 0.00 0.00 86 1021.1
20260507064555 10 0 0.0 0.0 0.00 0.00 0.00 86 1021.1
20260507064054 10 0 0.0 0.0 0.00 0.00 0.00 86 1021.1
20260507063553 10 0 0.0 0.0 0.00 0.00 0.00 85 1021.1
20260507063052 10 0 0.0 0.0 0.00 0.00 0.00 85 1021.2
20260507062553 10 0 0.0 3.2 0.00 0.00 0.00 85 1021.3
20260507062055 10 0 0.0 4.8 0.00 0.00 0.00 84 1021.1
20260507061553 10 0 0.0 4.8 0.00 0.00 0.00 84 1021.1
20260507061053 11 0 0.0 0.0 0.00 0.00 0.00 84 1021.2
20260507060554 11 0 0.0 0.0 0.00 0.00 0.00 83 1021.2
20260507060057 11 0 0.0 0.0 0.00 0.00 0.00 83 1021.3
20260507055554 11 0 0.0 3.2 0.00 0.00 0.00 83 1021.1
20260507055054 11 0 0.0 3.2 0.00 0.00 0.00 82 1021.2
20260507054553 11 0 0.0 3.2 0.00 0.00 0.00 82 1021.3
20260507054054 11 0 0.0 3.2 0.00 0.00 0.00 82 1021.3
20260507053554 11 0 0.0 4.8 0.00 0.00 0.00 82 1021.4
20260507053055 11 0 0.0 4.8 0.00 0.00 0.00 82 1021.3
20260507052557 11 0 0.0 3.2 0.00 0.00 0.00 82 1021.4
20260507052054 11 0 0.0 3.2 0.00 0.00 0.00 81 1021.4
20260507051555 11 0 0.0 3.2 0.00 0.00 0.00 81 1021.4
20260507051055 11 0 0.0 8.0 0.00 0.00 0.00 82 1021.4
20260507050557 11 0 0.0 8.0 0.00 0.00 0.00 82 1021.4
20260507050052 11 155 0.0 1.6 0.00 0.00 0.00 82 1021.3
20260507045557 11 0 0.0 0.0 0.00 0.00 0.00 83 1021.4
20260507045055 11 0 0.0 0.0 0.00 0.00 0.00 83 1021.4
20260507044647 11 0 0.0 0.0 0.00 0.00 0.00 83 1021.4
20260507044124 11 0 0.0 0.0 0.00 0.00 0.00 83 1021.4
20260507043555 12 0 0.0 0.0 0.00 0.00 0.00 82 1021.3
20260507043053 12 0 0.0 0.0 0.00 0.00 0.00 82 1021.3
20260507042555 12 0 0.0 0.0 0.00 0.00 0.00 82 1021.3
20260507042054 12 0 0.0 0.0 0.00 0.00 0.00 82 1021.3
20260507041555 12 0 0.0 0.0 0.00 0.00 0.00 82 1021.2
20260507041054 12 0 0.0 0.0 0.00 0.00 0.00 82 1021.2
20260507040555 12 0 0.0 0.0 0.00 0.00 0.00 82 1021.3
20260507040055 12 0 0.0 0.0 0.00 0.00 0.00 81 1021.1
20260507035555 12 0 0.0 0.0 0.00 0.00 0.00 81 1021.1
20260507035054 12 0 0.0 0.0 0.00 0.00 0.00 81 1021.1
20260507034556 12 0 0.0 0.0 0.00 0.00 0.00 80 1021.1
20260507034054 12 0 0.0 0.0 0.00 0.00 0.00 80 1021.1
20260507033554 12 0 0.0 0.0 0.00 0.00 0.00 80 1021.1
20260507033054 12 0 0.0 0.0 0.00 0.00 0.00 80 1021.0
20260507032555 12 0 0.0 0.0 0.00 0.00 0.00 79 1021.0
20260507032055 12 0 0.0 0.0 0.00 0.00 0.00 79 1021.0
20260507031557 12 0 0.0 0.0 0.00 0.00 0.00 79 1021.0
20260507031114 12 0 0.0 0.0 0.00 0.00 0.00 79 1021.0
20260507030553 12 0 0.0 0.0 0.00 0.00 0.00 78 1021.0
20260507030059 12 0 0.0 0.0 0.00 0.00 0.00 78 1021.0
20260507025600 12 0 0.0 0.0 0.00 0.00 0.00 78 1021.0
20260507025057 12 0 0.0 0.0 0.00 0.00 0.00 77 1020.9
20260507024618 12 0 0.0 0.0 0.00 0.00 0.00 77 1020.9
20260507024054 12 0 0.0 0.0 0.00 0.00 0.00 77 1020.9
20260507023559 12 0 0.0 0.0 0.00 0.00 0.00 77 1020.8
20260507023054 12 0 0.0 4.8 0.00 0.00 0.00 76 1020.8
20260507022555 12 0 0.0 4.8 0.00 0.00 0.00 76 1020.9
20260507022055 13 0 0.0 3.2 0.00 0.00 0.00 76 1020.8
20260507021554 13 0 0.0 3.2 0.00 0.00 0.00 76 1020.8
20260507021058 13 0 0.0 6.4 0.00 0.00 0.00 76 1020.7
20260507020554 13 0 0.0 6.4 0.00 0.00 0.00 76 1020.8
20260507020109 13 70 0.0 9.7 0.00 0.00 0.00 76 1020.7
20260507015554 13 159 1.6 9.7 0.00 0.00 0.00 75 1020.8
20260507015055 13 193 1.6 8.0 0.00 0.00 0.00 76 1020.7
20260507014608 13 239 0.0 4.8 0.00 0.00 0.00 76 1020.7
20260507014053 13 0 0.0 3.2 0.00 0.00 0.00 75 1020.7
20260507013552 13 0 0.0 3.2 0.00 0.00 0.00 75 1020.7
20260507013111 13 0 0.0 8.0 0.00 0.00 0.00 74 1020.7
20260507012555 13 148 0.0 8.0 0.00 0.00 0.00 75 1020.7
20260507012058 13 107 0.0 8.0 0.00 0.00 0.00 74 1020.9
20260507011553 13 0 0.0 9.7 0.00 0.00 0.00 74 1020.8
20260507011054 13 275 1.6 9.7 0.00 0.00 0.00 74 1020.8
20260507010554 13 211 1.6 8.0 0.00 0.00 0.00 74 1020.8
20260507010056 13 0 1.6 8.0 0.00 0.00 0.00 74 1020.9
20260507005555 13 0 0.0 4.8 0.00 0.00 0.00 74 1020.8
20260507005054 13 254 0.0 9.7 0.00 0.00 0.00 75 1020.9
20260507004553 13 0 1.6 9.7 0.00 0.00 0.00 74 1020.9
20260507004104 13 278 1.6 6.4 0.00 0.00 0.00 74 1020.9
20260507003554 13 215 1.6 6.4 0.00 0.00 0.00 73 1020.9
20260507003053 13 112 1.6 9.7 0.00 0.00 0.00 73 1020.9
20260507002555 13 224 3.2 11.3 0.00 0.00 0.00 73 1020.9
20260507002057 13 194 1.6 11.3 0.00 0.00 0.00 73 1020.9
20260507001557 13 202 3.2 11.3 0.00 0.00 0.00 73 1020.8
20260507001058 13 0 3.2 11.3 0.00 0.00 0.00 73 1020.7
20260507000554 13 0 0.0 11.3 0.00 0.00 0.00 73 1020.7
20260507000054 13 213 1.6 11.3 0.00 0.00 0.00 73 1020.8
20260506235555 13 0 1.6 9.7 0.00 0.00 0.00 73 1020.8
20260506235054 13 0 0.0 11.3 0.00 0.00 0.00 72 1020.8
20260506234659 13 0 1.6 11.3 0.00 0.00 0.00 72 1020.7
20260506234609 13 0 1.6 11.3 0.00 0.00 0.00 72 1020.7
20260506234057 13 0 1.6 11.3 0.00 0.00 0.00 72 1020.7
20260506233554 13 180 3.2 11.3 0.00 0.00 0.00 71 1020.7
20260506233059 13 131 1.6 8.0 0.00 0.00 0.00 72 1020.7
20260506232553 13 138 1.6 14.5 0.00 0.00 0.00 72 1020.8
20260506232050 13 0 1.6 14.5 0.00 0.00 0.00 73 1020.8
20260506231600 13 123 1.6 14.5 0.00 0.00 0.00 72 1020.7
20260506231051 13 0 1.6 9.7 0.00 0.00 0.00 74 1020.7
20260506230555 13 173 3.2 9.7 0.00 0.00 0.00 73 1020.7
20260506230059 13 0 0.0 6.4 0.00 0.00 0.00 74 1020.8
20260506225554 13 0 0.0 8.0 0.00 0.00 0.00 73 1020.8
20260506224554 13 186 0.0 9.7 0.00 0.00 0.00 75 1020.8
20260506224053 13 0 3.2 12.9 0.00 0.00 0.00 75 1021.0
20260506223554 12 228 1.6 12.9 0.00 0.00 0.00 75 1020.9
20260506223057 12 200 1.6 11.3 0.00 0.00 0.00 76 1020.9
20260506222554 12 0 3.2 11.3 0.00 0.00 0.00 74 1020.9
20260506222054 12 174 1.6 16.1 0.00 0.00 0.00 74 1021.0
20260506221601 12 93 3.2 16.1 0.00 0.00 0.00 75 1021.0
20260506221051 13 165 3.2 11.3 0.00 0.00 0.00 74 1021.1
20260506220555 13 173 1.6 14.5 0.00 0.00 0.00 75 1021.1
20260506220057 13 191 3.2 14.5 0.00 0.00 0.00 75 1021.1
20260506215555 13 0 1.6 6.4 0.00 0.00 0.00 77 1021.1
20260506215054 12 195 0.0 6.4 0.00 0.00 0.00 78 1021.0
20260506214555 12 209 1.6 4.8 0.00 0.00 0.00 77 1021.1
20260506214055 12 0 0.0 9.7 0.00 0.00 0.00 77 1021.1
20260506213554 12 0 0.0 12.9 0.00 0.00 0.00 77 1021.1
20260506213113 12 0 1.6 12.9 0.00 0.00 0.00 77 1021.0
20260506212555 12 190 1.6 12.9 0.00 0.00 0.00 78 1021.0
20260506212055 12 0 0.0 8.0 0.00 0.00 0.00 79 1021.1
20260506211611 12 159 0.0 8.0 0.00 0.00 0.00 79 1021.1
20260506211054 12 0 0.0 4.8 0.00 0.00 0.00 80 1021.1
20260506210554 12 0 0.0 8.0 0.00 0.00 0.00 80 1021.0
20260506205553 12 0 0.0 4.8 0.00 0.00 0.00 80 1021.0
20260506205055 12 0 0.0 6.4 0.00 0.00 0.00 80 1021.0
20260506204600 12 147 0.0 6.4 0.00 0.00 0.00 80 1021.0
20260506204055 12 182 0.0 6.4 0.00 0.00 0.00 81 1021.0
20260506203554 12 0 0.0 12.9 0.00 0.00 0.00 82 1021.0
20260506203058 12 115 4.8 12.9 0.00 0.00 0.00 80 1020.9
20260506202559 12 0 0.0 16.1 0.00 0.00 0.00 82 1020.9
20260506202059 12 231 4.8 16.1 0.00 0.00 0.00 81 1021.0
20260506201610 12 234 3.2 12.9 0.00 0.00 0.00 80 1021.1
20260506201058 12 205 3.2 12.9 0.00 0.00 0.00 81 1021.0
20260506200554 12 199 4.8 16.1 0.00 0.00 0.00 80 1021.0
20260506195554 12 229 4.8 16.1 0.00 0.00 0.00 80 1020.9
20260506195057 12 0 4.8 16.1 0.00 0.00 0.00 80 1020.8
20260506194619 12 196 3.2 9.7 0.00 0.00 0.00 80 1020.8
20260506194057 12 0 1.6 9.7 0.00 0.00 0.00 81 1020.7
20260506193554 12 72 3.2 9.7 0.00 0.00 0.00 82 1020.7
20260506193058 12 258 1.6 12.9 0.00 0.00 0.00 83 1020.7
20260506192554 12 145 3.2 16.1 0.00 0.00 0.00 83 1020.8
20260506192055 12 238 3.2 16.1 0.00 0.00 0.00 83 1020.7
20260506191600 12 145 1.6 8.0 0.00 0.00 0.00 84 1020.7
20260506191056 12 189 1.6 8.0 0.00 0.00 0.00 85 1020.7
20260506190556 12 0 0.0 11.3 0.00 0.00 0.00 85 1020.7
20260506190055 12 0 3.2 11.3 0.00 0.00 0.00 86 1020.7
20260506185555 11 124 1.6 8.0 0.00 0.00 0.00 86 1020.6
20260506185057 11 212 3.2 8.0 0.00 0.00 0.00 86 1020.7
20260506184607 12 225 3.2 9.7 0.00 0.00 0.00 87 1020.8
20260506184054 12 125 0.0 9.7 0.00 0.00 0.00 87 1020.7
20260506183554 12 210 0.0 6.4 0.00 0.00 0.00 86 1020.6
20260506183101 12 159 1.6 6.4 0.00 0.00 0.00 86 1020.7
20260506182553 12 269 0.0 4.8 0.00 0.00 0.00 86 1020.6
20260506182056 12 115 0.0 9.7 0.00 0.00 0.00 85 1020.7
20260506181553 12 0 1.6 9.7 0.00 0.00 0.00 84 1020.6
20260506181054 12 154 1.6 12.9 0.00 0.00 0.00 84 1020.7
20260506180555 12 0 1.6 12.9 0.00 0.00 0.00 83 1020.6
20260506175554 12 228 1.6 8.0 0.00 0.00 0.00 84 1020.4
20260506175054 12 0 1.6 11.3 0.00 0.00 0.00 85 1020.2
20260506174553 12 157 1.6 11.3 0.00 0.00 0.00 85 1020.2
20260506174054 12 253 0.0 9.7 0.00 0.00 0.00 86 1020.3
20260506173551 12 259 3.2 9.7 0.00 0.00 0.00 86 1020.3
20260506173054 11 147 0.0 9.7 0.00 0.00 0.00 87 1020.5
20260506172556 11 281 1.6 9.7 0.00 0.00 0.00 87 1020.5
20260506172054 11 200 1.6 9.7 0.00 0.00 0.00 87 1020.6
20260506171554 11 0 0.0 9.7 0.00 0.00 0.00 88 1020.5
20260506171057 11 0 1.6 9.7 0.00 0.00 0.00 87 1020.5
20260506170551 11 0 0.0 6.4 0.00 0.00 0.00 87 1020.5
20260506170109 11 0 0.0 3.2 0.00 0.00 0.00 88 1020.5
20260506165553 11 242 0.0 9.7 0.00 0.00 0.00 88 1020.5
20260506165054 11 0 1.6 9.7 0.00 0.00 0.00 88 1020.4
20260506164553 11 0 1.6 8.0 0.00 0.00 0.00 87 1020.3
20260506164050 11 171 1.6 8.0 0.00 0.00 0.00 87 1020.3
20260506163558 11 178 1.6 8.0 0.00 0.00 0.00 86 1020.3
20260506163102 11 199 1.6 8.0 0.00 0.00 0.00 86 1020.3
20260506162554 12 235 0.0 6.4 0.00 0.00 0.00 87 1020.2
20260506162054 12 169 1.6 11.3 0.00 0.00 0.00 86 1020.1
20260506161553 12 0 3.2 11.3 0.00 0.00 0.00 86 1020.1
20260506161054 12 259 1.6 6.4 0.00 0.00 0.00 87 1020.1
20260506160551 11 0 0.0 8.0 0.00 0.00 0.00 86 1020.0
20260506160056 11 155 1.6 8.0 0.00 0.00 0.00 87 1020.0
20260506155553 11 182 0.0 9.7 0.00 0.00 0.00 87 1019.8
20260506155057 11 0 0.0 9.7 0.00 0.00 0.00 86 1019.8
20260506154555 11 197 1.6 8.0 0.00 0.00 0.00 87 1019.9
20260506154054 11 0 0.0 6.4 0.00 0.00 0.00 87 1020.0
20260506153554 11 176 0.0 8.0 0.00 0.00 0.00 87 1019.9
20260506153053 11 182 3.2 8.0 0.00 0.00 0.00 86 1020.1
20260506152553 11 232 1.6 6.4 0.00 0.00 0.00 87 1020.2
20260506152053 11 250 3.2 11.3 0.00 0.00 0.00 87 1020.2
20260506151555 11 178 3.2 11.3 0.00 0.00 0.00 86 1020.1
20260506151055 11 200 0.0 6.4 0.00 0.00 0.00 86 1020.1
20260506150554 11 217 1.6 6.4 0.00 0.00 0.00 86 1019.9
20260506150053 11 0 1.6 4.8 0.00 0.00 0.00 86 1019.9
20260506145553 11 0 0.0 4.8 0.00 0.00 0.00 86 1019.8
20260506145056 11 0 1.6 6.4 0.00 0.00 0.00 86 1019.8
20260506144603 11 182 0.0 6.4 0.00 0.00 0.00 86 1019.9
20260506144054 11 0 0.0 6.4 0.00 0.00 0.00 86 1019.9
20260506143555 11 0 0.0 6.4 0.00 0.00 0.00 86 1019.8
20260506143102 11 0 1.6 6.4 0.00 0.00 0.00 86 1020.0
20260506142557 11 153 0.0 6.4 0.00 0.00 0.00 86 1019.9
20260506142057 11 194 0.0 8.0 0.00 0.00 0.00 86 1019.9
20260506141552 11 0 1.6 8.0 0.00 0.00 0.00 86 1019.8
20260506141054 11 199 0.0 4.8 0.00 0.00 0.00 86 1019.8
20260506140557 11 0 0.0 6.4 0.00 0.00 0.00 86 1019.8
20260506140053 11 172 0.0 8.0 0.00 0.00 0.00 86 1019.9
20260506135552 11 0 1.6 8.0 0.00 0.00 0.00 86 1019.7
20260506135054 11 0 1.6 6.4 0.00 0.00 0.00 85 1019.8
20260506134553 11 0 0.0 6.4 0.00 0.00 0.00 86 1019.9
20260506134055 11 213 1.6 6.4 0.00 0.00 0.00 86 1019.8
20260506133554 11 0 1.6 4.8 0.00 0.00 0.00 86 1019.5
20260506133057 11 0 0.0 8.0 0.00 0.00 0.00 85 1019.6
20260506132551 11 0 0.0 8.0 0.00 0.00 0.00 85 1019.6
20260506132056 11 0 0.0 3.2 0.00 0.00 0.00 85 1019.5
20260506131556 11 268 0.0 6.4 0.00 0.00 0.00 86 1019.5
20260506131054 11 0 0.0 6.4 0.00 0.00 0.00 85 1019.4
20260506130553 11 209 0.0 6.4 0.00 0.00 0.00 85 1019.3
20260506130100 11 0 0.0 6.4 0.00 0.00 0.00 85 1019.3
20260506125556 11 0 0.0 8.0 0.00 0.00 0.00 85 1018.8
20260506125054 11 169 3.2 9.7 0.00 0.00 0.00 85 1019.2
20260506124556 11 0 0.0 9.7 0.00 0.00 0.00 85 1019.1
20260506124054 11 183 4.8 9.7 0.00 0.00 0.00 85 1019.2
20260506123557 11 0 0.0 8.0 0.00 0.00 0.00 86 1019.3
20260506123056 11 218 0.0 8.0 0.00 0.00 0.00 86 1019.2
20260506122554 11 173 0.0 6.4 0.00 0.00 0.00 85 1019.1
20260506122053 11 0 0.0 6.4 0.00 0.00 0.00 85 1018.9
20260506121558 11 140 0.0 3.2 0.00 0.00 0.00 86 1018.9
20260506121054 11 0 0.0 3.2 0.00 0.00 0.00 86 1019.0
20260506120554 11 0 0.0 3.2 0.00 0.00 0.00 86 1019.0
20260506120111 11 0 0.0 4.8 0.00 0.00 0.00 86 1019.0
20260506115554 11 0 0.0 4.8 0.00 0.00 0.00 86 1019.0
20260506115054 11 0 0.0 4.8 0.00 0.00 0.00 86 1018.9
20260506114557 11 0 0.0 6.4 0.00 0.00 0.00 86 1018.9
20260506114053 11 0 1.6 6.4 0.00 0.00 0.00 86 1018.9
20260506113554 11 0 0.0 6.4 0.00 0.00 0.00 86 1018.8
20260506113102 11 171 0.0 9.7 0.00 0.00 0.00 86 1018.6
20260506112555 11 194 0.0 9.7 0.00 0.00 0.00 86 1018.6
20260506112050 11 186 0.0 9.7 0.00 0.00 0.00 86 1018.5
20260506111554 11 0 0.0 9.7 0.00 0.00 0.00 87 1018.5
20260506111054 11 184 0.0 9.7 0.00 0.00 0.00 87 1018.5
20260506110557 11 262 1.6 9.7 0.00 0.00 0.00 87 1018.4
20260506110057 11 0 0.0 4.8 0.00 0.00 0.00 87 1018.5
20260506105553 11 0 0.0 6.4 0.00 0.00 0.00 88 1018.4
20260506105053 11 0 0.0 6.4 0.00 0.00 0.00 88 1018.3
20260506104601 11 144 1.6 12.9 0.00 0.00 0.00 88 1018.3
20260506104053 11 267 3.2 12.9 0.00 0.00 0.00 88 1018.3
20260506103550 11 0 0.0 11.3 0.00 0.00 0.00 90 1018.3
20260506103055 11 0 0.0 12.9 0.00 0.00 0.00 90 1018.3
20260506102551 10 0 3.2 12.9 0.00 0.00 0.00 90 1018.3
20260506102057 10 187 0.0 4.8 0.00 0.00 0.00 90 1018.3
20260506101554 10 0 0.0 4.8 0.00 0.00 0.00 90 1018.3
20260506101054 10 0 0.0 3.2 0.00 0.00 0.00 90 1018.3
20260506100554 10 0 0.0 3.2 0.00 0.00 0.00 90 1018.2
20260506100053 10 0 0.0 0.0 0.00 0.00 0.00 90 1018.2
20260506095551 10 0 0.0 0.0 0.00 0.00 0.00 90 1018.1
20260506095057 10 0 0.0 0.0 0.00 0.00 0.00 90 1018.1
20260506094603 10 0 0.0 1.6 0.00 0.00 0.00 90 1018.0
20260506094054 10 0 0.0 1.6 0.00 0.00 0.00 90 1018.0
20260506093553 10 0 0.0 1.6 0.00 0.00 0.00 90 1018.0
20260506093053 10 0 0.0 1.6 0.00 0.00 0.00 90 1018.0
20260506092555 10 0 0.0 1.6 0.00 0.00 0.00 90 1018.0
20260506092055 10 0 0.0 1.6 0.00 0.00 0.00 90 1018.0
20260506091604 10 0 0.0 3.2 0.00 0.00 0.00 90 1017.9
20260506091050 10 0 0.0 3.2 0.00 0.00 0.00 90 1017.9
20260506090556 10 217 0.0 1.6 0.00 0.00 0.00 90 1017.8
20260506090058 10 0 0.0 0.0 0.00 0.00 0.00 89 1017.8
20260506085554 10 0 0.0 0.0 0.00 0.00 0.00 89 1017.8
20260506085055 10 0 0.0 0.0 0.00 0.00 0.00 89 1017.7
20260506084615 10 0 0.0 0.0 0.00 0.00 0.00 89 1017.6